Time,TemperatureF,DewpointF,PressureIn,WindDirection,WindDirectionDegrees,WindSpeedMPH,WindSpeedGustMPH,Humidity,HourlyPrecipIn,Conditions,Clouds,dailyrainin,SoftwareType,DateUTC
2013-08-30 00:01:00,67.5,66.5,29.94,North,0,0.0,0.0,97,0.00,,,0.00,WUHU216HW,2013-08-30 04:01:00,
2013-08-30 00:04:00,67.5,66.5,29.94,North,0,0.0,0.0,97,0.00,,,0.00,WUHU216HW,2013-08-30 04:04:00,
2013-08-30 00:05:00,67.5,66.5,29.94,North,0,0.0,0.0,97,0.00,,,0.00,WUHU216HW,2013-08-30 04:05:00,
2013-08-30 00:06:00,67.5,66.5,29.94,North,0,0.0,0.0,97,0.00,,,0.00,WUHU216HW,2013-08-30 04:06:00,
2013-08-30 00:08:00,67.3,66.3,29.94,North,0,0.0,0.0,97,0.00,,,0.00,WUHU216HW,2013-08-30 04:08:00,
2013-08-30 00:13:00,67.3,66.3,29.94,North,0,0.0,0.0,97,0.00,,,0.00,WUHU216HW,2013-08-30 04:13:00,
2013-08-30 00:18:00,67.3,66.3,29.94,North,0,0.0,0.0,97,0.00,,,0.00,WUHU216HW,2013-08-30 04:18:00,
2013-08-30 00:23:00,67.1,66.1,29.94,North,0,0.0,0.0,97,0.00,,,0.00,WUHU216HW,2013-08-30 04:23:00,
2013-08-30 00:28:00,67.1,66.1,29.94,North,0,0.0,0.0,97,0.00,,,0.00,WUHU216HW,2013-08-30 04:28:00,
2013-08-30 00:33:00,67.0,66.0,29.94,North,0,0.0,0.0,97,0.00,,,0.00,WUHU216HW,2013-08-30 04:33:00,
2013-08-30 00:38:00,66.8,65.8,29.94,North,0,0.0,0.0,97,0.00,,,0.00,WUHU216HW,2013-08-30 04:38:00,
2013-08-30 00:43:00,66.6,65.6,29.94,SSW,201,0.8,0.9,97,0.00,,,0.00,WUHU216HW,2013-08-30 04:43:00,
2013-08-30 00:48:00,66.6,65.6,29.94,SSW,203,0.4,0.4,97,0.00,,,0.00,WUHU216HW,2013-08-30 04:48:00,
2013-08-30 00:53:00,66.6,65.6,29.94,North,0,0.0,0.0,97,0.00,,,0.00,WUHU216HW,2013-08-30 04:53:00,
2013-08-30 00:58:00,66.6,65.6,29.94,North,0,0.0,0.0,97,0.00,,,0.00,WUHU216HW,2013-08-30 04:58:00,
2013-08-30 01:03:00,66.4,65.4,29.94,North,0,0.0,0.0,97,0.00,,,0.00,WUHU216HW,2013-08-30 05:03:00,
2013-08-30 01:08:00,66.4,65.4,29.94,North,0,0.0,0.0,97,0.00,,,0.00,WUHU216HW,2013-08-30 05:08:00,
2013-08-30 01:13:00,66.4,65.4,29.94,North,0,0.0,0.0,97,0.00,,,0.00,WUHU216HW,2013-08-30 05:13:00,
2013-08-30 01:18:00,66.4,65.4,29.94,North,0,0.0,0.0,97,0.00,,,0.00,WUHU216HW,2013-08-30 05:18:00,
2013-08-30 01:23:00,66.4,65.4,29.94,North,0,0.0,0.0,97,0.00,,,0.00,WUHU216HW,2013-08-30 05:23:00,
2013-08-30 01:28:00,66.4,65.4,29.94,North,0,0.0,0.0,97,0.00,,,0.00,WUHU216HW,2013-08-30 05:28:00,
2013-08-30 01:33:00,66.4,65.4,29.94,North,0,0.0,0.0,97,0.00,,,0.00,WUHU216HW,2013-08-30 05:33:00,
2013-08-30 01:38:00,66.4,65.4,29.94,North,0,0.0,0.0,97,0.00,,,0.00,WUHU216HW,2013-08-30 05:38:00,
2013-08-30 01:43:00,66.2,65.2,29.94,North,0,0.0,0.0,97,0.00,,,0.00,WUHU216HW,2013-08-30 05:43:00,
2013-08-30 01:48:00,66.2,65.2,29.94,North,0,0.0,0.0,97,0.00,,,0.00,WUHU216HW,2013-08-30 05:48:00,
2013-08-30 01:53:00,66.2,65.2,29.94,North,0,0.0,0.0,97,0.00,,,0.00,WUHU216HW,2013-08-30 05:53:00,
2013-08-30 01:58:00,66.1,65.1,29.94,North,0,0.0,0.0,97,0.00,,,0.00,WUHU216HW,2013-08-30 05:58:00,
2013-08-30 02:03:00,66.1,65.1,29.94,North,0,0.0,0.0,97,0.00,,,0.00,WUHU216HW,2013-08-30 06:03:00,
2013-08-30 02:08:00,66.1,65.1,29.94,North,0,0.0,0.0,97,0.00,,,0.00,WUHU216HW,2013-08-30 06:08:00,
2013-08-30 02:13:00,66.1,65.1,29.93,North,0,0.0,0.0,97,0.00,,,0.00,WUHU216HW,2013-08-30 06:13:00,
2013-08-30 02:18:00,65.9,64.9,29.93,North,0,0.0,0.0,97,0.00,,,0.00,WUHU216HW,2013-08-30 06:18:00,
2013-08-30 02:23:00,65.9,64.9,29.93,North,0,0.0,0.0,97,0.00,,,0.00,WUHU216HW,2013-08-30 06:23:00,
2013-08-30 02:28:00,65.9,64.9,29.93,North,0,0.0,0.0,97,0.00,,,0.00,WUHU216HW,2013-08-30 06:28:00,
2013-08-30 02:33:00,65.9,64.9,29.93,SSE,158,0.7,0.9,97,0.00,,,0.00,WUHU216HW,2013-08-30 06:33:00,
2013-08-30 02:38:00,65.9,64.9,29.93,North,0,0.0,0.0,97,0.00,,,0.00,WUHU216HW,2013-08-30 06:38:00,
2013-08-30 02:43:00,65.9,64.9,29.93,North,0,0.0,0.0,97,0.00,,,0.00,WUHU216HW,2013-08-30 06:43:00,
2013-08-30 02:48:00,65.7,64.7,29.93,North,0,0.0,0.0,97,0.00,,,0.00,WUHU216HW,2013-08-30 06:48:00,
2013-08-30 02:53:00,65.5,64.8,29.93,North,0,0.0,0.0,98,0.00,,,0.00,WUHU216HW,2013-08-30 06:53:00,
2013-08-30 02:58:00,65.3,64.6,29.93,North,0,0.0,0.0,98,0.00,,,0.00,WUHU216HW,2013-08-30 06:58:00,
2013-08-30 03:03:00,65.3,64.6,29.93,North,0,0.0,0.0,98,0.00,,,0.00,WUHU216HW,2013-08-30 07:03:00,
2013-08-30 03:09:00,65.2,64.2,29.93,North,0,0.0,0.0,97,0.00,,,0.00,WUHU216HW,2013-08-30 07:09:00,
2013-08-30 03:14:00,65.2,64.2,29.93,North,0,0.0,0.0,97,0.00,,,0.00,WUHU216HW,2013-08-30 07:14:00,
2013-08-30 03:19:00,65.0,64.0,29.93,North,0,0.0,0.0,97,0.00,,,0.00,WUHU216HW,2013-08-30 07:19:00,
2013-08-30 03:24:00,65.0,64.0,29.93,North,0,0.0,0.0,97,0.00,,,0.00,WUHU216HW,2013-08-30 07:24:00,
2013-08-30 03:29:00,65.0,64.0,29.93,North,0,0.0,0.0,97,0.00,,,0.00,WUHU216HW,2013-08-30 07:29:00,
2013-08-30 03:34:00,64.8,63.8,29.93,North,0,0.0,0.0,97,0.00,,,0.00,WUHU216HW,2013-08-30 07:34:00,
2013-08-30 03:39:00,64.8,63.8,29.93,North,0,0.0,0.0,97,0.00,,,0.00,WUHU216HW,2013-08-30 07:39:00,
2013-08-30 03:44:00,64.8,63.8,29.93,North,0,0.0,0.0,97,0.00,,,0.00,WUHU216HW,2013-08-30 07:44:00,
2013-08-30 03:49:00,64.8,63.8,29.93,North,0,0.0,0.0,97,0.00,,,0.00,WUHU216HW,2013-08-30 07:49:00,
2013-08-30 03:54:00,65.0,64.0,29.93,North,0,0.0,0.0,97,0.00,,,0.00,WUHU216HW,2013-08-30 07:54:00,
2013-08-30 03:59:00,65.0,64.0,29.92,North,0,0.0,0.0,97,0.00,,,0.00,WUHU216HW,2013-08-30 07:59:00,
2013-08-30 04:04:00,65.0,64.0,29.92,North,0,0.0,0.0,97,0.00,,,0.00,WUHU216HW,2013-08-30 08:04:00,
2013-08-30 04:09:00,64.8,63.8,29.92,North,0,0.0,0.0,97,0.00,,,0.00,WUHU216HW,2013-08-30 08:09:00,
2013-08-30 04:14:00,64.6,63.6,29.92,North,0,0.0,0.0,97,0.00,,,0.00,WUHU216HW,2013-08-30 08:14:00,
2013-08-30 04:19:00,64.6,63.6,29.92,North,0,0.0,0.0,97,0.00,,,0.00,WUHU216HW,2013-08-30 08:19:00,
2013-08-30 04:24:00,64.4,63.4,29.92,North,0,0.0,0.0,97,0.00,,,0.00,WUHU216HW,2013-08-30 08:24:00,
2013-08-30 04:29:00,64.4,63.4,29.92,North,0,0.0,0.0,97,0.00,,,0.00,WUHU216HW,2013-08-30 08:29:00,
2013-08-30 04:34:00,64.3,63.3,29.92,North,0,0.0,0.0,97,0.00,,,0.00,WUHU216HW,2013-08-30 08:34:00,
2013-08-30 04:39:00,64.3,63.3,29.91,North,0,0.0,0.0,97,0.00,,,0.00,WUHU216HW,2013-08-30 08:39:00,
2013-08-30 04:44:00,64.1,63.1,29.91,North,0,0.0,0.0,97,0.00,,,0.00,WUHU216HW,2013-08-30 08:44:00,
2013-08-30 04:49:00,64.1,63.1,29.91,North,0,0.0,0.0,97,0.00,,,0.00,WUHU216HW,2013-08-30 08:49:00,
2013-08-30 04:54:00,63.9,62.9,29.91,North,0,0.0,0.0,97,0.00,,,0.00,WUHU216HW,2013-08-30 08:54:00,
2013-08-30 04:59:00,63.7,62.7,29.91,North,0,0.0,0.0,97,0.00,,,0.00,WUHU216HW,2013-08-30 08:59:00,
2013-08-30 05:04:00,63.7,62.7,29.91,North,0,0.0,0.0,97,0.00,,,0.00,WUHU216HW,2013-08-30 09:04:00,
2013-08-30 05:09:00,63.7,62.7,29.90,North,0,0.0,0.0,97,0.00,,,0.00,WUHU216HW,2013-08-30 09:09:00,
2013-08-30 05:14:00,63.7,62.7,29.90,North,0,0.0,0.0,97,0.00,,,0.00,WUHU216HW,2013-08-30 09:14:00,
2013-08-30 05:19:00,63.7,62.7,29.91,North,0,0.0,0.0,97,0.00,,,0.00,WUHU216HW,2013-08-30 09:19:00,
2013-08-30 05:24:00,63.7,62.7,29.90,South,180,0.1,0.2,97,0.00,,,0.00,WUHU216HW,2013-08-30 09:24:00,
2013-08-30 05:29:00,63.7,62.7,29.90,North,0,0.0,0.0,97,0.00,,,0.00,WUHU216HW,2013-08-30 09:29:00,
2013-08-30 05:34:00,63.7,62.7,29.90,North,0,0.0,0.0,97,0.00,,,0.00,WUHU216HW,2013-08-30 09:34:00,
2013-08-30 05:39:00,63.5,62.5,29.90,North,0,0.0,0.0,97,0.00,,,0.00,WUHU216HW,2013-08-30 09:39:00,
2013-08-30 05:44:00,63.5,62.5,29.89,SSW,210,1.1,1.8,97,0.00,,,0.00,WUHU216HW,2013-08-30 09:44:00,
2013-08-30 05:49:00,63.5,62.5,29.89,North,0,0.0,0.0,97,0.00,,,0.00,WUHU216HW,2013-08-30 09:49:00,
2013-08-30 05:54:00,63.5,62.5,29.89,North,0,0.0,0.0,97,0.00,,,0.00,WUHU216HW,2013-08-30 09:54:00,
2013-08-30 05:59:00,63.7,62.7,29.89,SSE,158,0.2,0.4,97,0.00,,,0.00,WUHU216HW,2013-08-30 09:59:00,
2013-08-30 06:04:00,63.7,62.7,29.89,SW,225,0.6,0.7,97,0.00,,,0.00,WUHU216HW,2013-08-30 10:04:00,
2013-08-30 06:09:00,63.9,62.9,29.89,North,0,0.0,0.0,97,0.00,,,0.00,WUHU216HW,2013-08-30 10:09:00,
2013-08-30 06:14:00,64.1,63.1,29.89,North,0,0.0,0.0,97,0.00,,,0.00,WUHU216HW,2013-08-30 10:14:00,
2013-08-30 06:20:00,64.1,63.1,29.89,North,0,0.0,0.0,97,0.00,,,0.00,WUHU216HW,2013-08-30 10:20:00,
2013-08-30 06:25:00,64.1,63.1,29.89,North,0,0.0,0.0,97,0.00,,,0.00,WUHU216HW,2013-08-30 10:25:00,
2013-08-30 06:30:00,64.3,63.3,29.89,North,0,0.0,0.0,97,0.00,,,0.00,WUHU216HW,2013-08-30 10:30:00,
2013-08-30 06:35:00,64.1,63.1,29.89,South,180,0.5,0.7,97,0.00,,,0.00,WUHU216HW,2013-08-30 10:35:00,
2013-08-30 06:40:00,64.3,63.3,29.88,ESE,113,0.1,0.4,97,0.00,,,0.00,WUHU216HW,2013-08-30 10:40:00,
2013-08-30 06:45:00,64.3,63.3,29.88,SW,225,0.2,0.4,97,0.00,,,0.00,WUHU216HW,2013-08-30 10:45:00,
2013-08-30 06:50:00,64.4,63.4,29.88,SSE,158,0.4,0.7,97,0.00,,,0.00,WUHU216HW,2013-08-30 10:50:00,
2013-08-30 06:55:00,64.4,63.4,29.89,SSE,158,0.2,0.4,97,0.00,,,0.00,WUHU216HW,2013-08-30 10:55:00,
2013-08-30 07:00:00,64.4,63.4,29.89,SSE,158,0.2,0.4,97,0.00,,,0.00,WUHU216HW,2013-08-30 11:00:00,
2013-08-30 07:05:00,64.4,63.4,29.89,North,0,0.0,0.0,97,0.00,,,0.00,WUHU216HW,2013-08-30 11:05:00,
2013-08-30 07:10:00,64.4,63.4,29.89,SE,143,1.3,2.2,97,0.00,,,0.00,WUHU216HW,2013-08-30 11:10:00,
2013-08-30 07:15:00,64.4,63.4,29.89,SSE,158,0.1,0.2,97,0.00,,,0.00,WUHU216HW,2013-08-30 11:15:00,
2013-08-30 07:20:00,64.4,63.4,29.89,SSE,158,0.3,0.4,97,0.00,,,0.00,WUHU216HW,2013-08-30 11:20:00,
2013-08-30 07:25:00,64.4,63.4,29.89,ESE,113,0.3,0.4,97,0.00,,,0.00,WUHU216HW,2013-08-30 11:25:00,
2013-08-30 07:30:00,64.4,63.4,29.89,SSW,203,0.1,0.4,97,0.00,,,0.00,WUHU216HW,2013-08-30 11:30:00,
2013-08-30 07:35:00,64.4,63.4,29.89,North,0,0.0,0.0,97,0.00,,,0.00,WUHU216HW,2013-08-30 11:35:00,
2013-08-30 07:40:00,64.4,63.4,29.89,SSW,194,0.2,0.4,97,0.00,,,0.00,WUHU216HW,2013-08-30 11:40:00,
2013-08-30 07:45:00,64.4,63.4,29.89,SSE,158,0.2,0.4,97,0.00,,,0.00,WUHU216HW,2013-08-30 11:45:00,
2013-08-30 07:50:00,64.6,63.6,29.89,SSW,203,0.1,0.4,97,0.00,,,0.00,WUHU216HW,2013-08-30 11:50:00,
2013-08-30 07:55:00,64.8,63.8,29.89,North,0,0.0,0.0,97,0.00,,,0.00,WUHU216HW,2013-08-30 11:55:00,
2013-08-30 08:00:00,65.0,64.0,29.89,North,0,0.0,0.0,97,0.00,,,0.00,WUHU216HW,2013-08-30 12:00:00,
2013-08-30 08:05:00,65.2,64.5,29.90,North,0,0.0,0.0,98,0.00,,,0.00,WUHU216HW,2013-08-30 12:05:00,
2013-08-30 08:10:00,65.5,64.8,29.89,North,0,0.0,0.0,98,0.00,,,0.00,WUHU216HW,2013-08-30 12:10:00,
2013-08-30 08:15:00,65.7,64.7,29.89,North,0,0.0,0.0,97,0.00,,,0.00,WUHU216HW,2013-08-30 12:15:00,
2013-08-30 08:20:00,66.2,65.2,29.89,South,189,0.6,1.1,97,0.00,,,0.00,WUHU216HW,2013-08-30 12:20:00,
2013-08-30 08:25:00,66.4,65.4,29.89,SW,225,0.9,1.1,97,0.00,,,0.00,WUHU216HW,2013-08-30 12:25:00,
2013-08-30 08:31:00,66.6,65.6,29.89,SSW,198,1.1,2.2,97,0.00,,,0.00,WUHU216HW,2013-08-30 12:31:00,
2013-08-30 08:36:00,67.1,66.1,29.89,SSW,213,1.1,1.8,97,0.00,,,0.00,WUHU216HW,2013-08-30 12:36:00,
2013-08-30 08:41:00,67.3,66.3,29.89,SSW,197,2.1,2.5,97,0.00,,,0.00,WUHU216HW,2013-08-30 12:41:00,
2013-08-30 08:46:00,67.7,66.7,29.89,SSW,200,2.4,2.7,97,0.00,,,0.00,WUHU216HW,2013-08-30 12:46:00,
2013-08-30 08:51:00,68.0,67.0,29.89,South,190,1.2,2.2,97,0.00,,,0.00,WUHU216HW,2013-08-30 12:51:00,
2013-08-30 08:56:00,68.4,67.4,29.89,SSE,149,2.4,2.9,97,0.00,,,0.00,WUHU216HW,2013-08-30 12:56:00,
2013-08-30 09:01:00,68.8,67.8,29.89,South,181,1.8,2.9,97,0.00,,,0.00,WUHU216HW,2013-08-30 13:01:00,
2013-08-30 09:06:00,69.3,68.3,29.88,SW,225,0.8,1.1,97,0.00,,,0.00,WUHU216HW,2013-08-30 13:06:00,
2013-08-30 09:11:00,69.8,68.8,29.88,SSW,213,2.8,4.0,97,0.00,,,0.00,WUHU216HW,2013-08-30 13:11:00,
2013-08-30 09:16:00,70.4,69.4,29.88,SSW,192,3.0,3.1,97,0.00,,,0.00,WUHU216HW,2013-08-30 13:16:00,
2013-08-30 09:21:00,70.9,69.9,29.87,South,181,2.2,4.0,97,0.00,,,0.00,WUHU216HW,2013-08-30 13:21:00,
2013-08-30 09:26:00,71.5,70.1,29.87,SSW,198,1.7,3.4,96,0.00,,,0.00,WUHU216HW,2013-08-30 13:26:00,
2013-08-30 09:31:00,72.0,70.6,29.87,West,276,1.0,1.8,96,0.00,,,0.00,WUHU216HW,2013-08-30 13:31:00,
2013-08-30 09:36:00,72.7,71.3,29.87,South,176,1.3,1.8,96,0.00,,,0.00,WUHU216HW,2013-08-30 13:36:00,
2013-08-30 09:41:00,73.4,72.4,29.86,SW,215,3.3,5.1,97,0.00,,,0.00,WUHU216HW,2013-08-30 13:41:00,
2013-08-30 09:46:00,74.0,73.0,29.86,SSW,193,1.9,3.1,97,0.00,,,0.00,WUHU216HW,2013-08-30 13:46:00,
2013-08-30 09:51:00,74.9,73.9,29.86,WSW,248,3.0,4.0,97,0.00,,,0.00,WUHU216HW,2013-08-30 13:51:00,
2013-08-30 09:56:00,75.4,74.4,29.86,SW,226,3.3,4.0,97,0.00,,,0.00,WUHU216HW,2013-08-30 13:56:00,
2013-08-30 10:01:00,76.1,74.7,29.86,SW,226,4.4,6.3,96,0.00,,,0.00,WUHU216HW,2013-08-30 14:01:00,
2013-08-30 10:06:00,76.9,75.5,29.86,SW,222,4.1,4.7,96,0.00,,,0.00,WUHU216HW,2013-08-30 14:06:00,
2013-08-30 10:11:00,77.4,75.6,29.86,West,274,2.4,3.8,94,0.00,,,0.00,WUHU216HW,2013-08-30 14:11:00,
2013-08-30 10:16:00,78.1,76.0,29.86,SSW,192,2.1,2.7,93,0.00,,,0.00,WUHU216HW,2013-08-30 14:16:00,
2013-08-30 10:21:00,78.5,76.0,29.86,SSW,207,3.6,4.7,92,0.00,,,0.00,WUHU216HW,2013-08-30 14:21:00,
2013-08-30 10:26:00,79.2,76.3,29.86,WSW,252,3.7,4.7,91,0.00,,,0.00,WUHU216HW,2013-08-30 14:26:00,
2013-08-30 10:31:00,79.7,76.8,29.85,WSW,239,5.2,7.6,91,0.00,,,0.00,WUHU216HW,2013-08-30 14:31:00,
2013-08-30 10:36:00,80.3,76.7,29.85,WSW,242,5.5,7.6,89,0.00,,,0.00,WUHU216HW,2013-08-30 14:36:00,
2013-08-30 10:41:00,81.0,77.0,29.85,SW,230,5.6,8.1,88,0.00,,,0.00,WUHU216HW,2013-08-30 14:41:00,
2013-08-30 10:46:00,81.7,77.3,29.85,SW,235,5.5,8.3,87,0.00,,,0.00,WUHU216HW,2013-08-30 14:46:00,
2013-08-30 10:51:00,82.1,77.3,29.85,WSW,240,8.5,10.1,85,0.00,,,0.00,WUHU216HW,2013-08-30 14:51:00,
2013-08-30 10:56:00,81.7,76.9,29.85,WSW,250,2.7,3.4,85,0.00,,,0.00,WUHU216HW,2013-08-30 14:56:00,
2013-08-30 11:01:00,81.7,76.9,29.85,WSW,253,4.6,5.6,85,0.00,,,0.00,WUHU216HW,2013-08-30 15:01:00,
2013-08-30 11:06:00,81.4,75.9,29.85,SW,233,4.1,5.8,83,0.00,,,0.00,WUHU216HW,2013-08-30 15:06:00,
2013-08-30 11:11:00,81.7,76.6,29.85,WSW,238,4.3,6.0,84,0.00,,,0.00,WUHU216HW,2013-08-30 15:11:00,
2013-08-30 11:16:00,82.1,77.0,29.85,WSW,256,3.2,5.6,84,0.00,,,0.00,WUHU216HW,2013-08-30 15:16:00,
2013-08-30 11:21:00,82.1,76.6,29.85,WSW,257,6.5,7.4,83,0.00,,,0.00,WUHU216HW,2013-08-30 15:21:00,
2013-08-30 11:26:00,82.6,77.1,29.85,WSW,243,6.8,7.6,83,0.00,,,0.00,WUHU216HW,2013-08-30 15:26:00,
2013-08-30 11:31:00,83.0,77.4,29.85,SW,228,6.6,7.4,83,0.00,,,0.00,WUHU216HW,2013-08-30 15:31:00,
2013-08-30 11:36:00,83.5,77.1,29.84,SW,235,6.3,7.2,81,0.00,,,0.00,WUHU216HW,2013-08-30 15:36:00,
2013-08-30 11:42:00,83.9,77.1,29.84,SW,223,6.5,8.1,80,0.00,,,0.00,WUHU216HW,2013-08-30 15:42:00,
2013-08-30 11:47:00,83.9,77.1,29.84,WSW,240,5.0,6.3,80,0.00,,,0.00,WUHU216HW,2013-08-30 15:47:00,
2013-08-30 11:52:00,83.9,77.1,29.84,SW,223,7.1,8.3,80,0.00,,,0.00,WUHU216HW,2013-08-30 15:52:00,
2013-08-30 11:57:00,84.1,76.9,29.84,SSW,209,9.9,13.2,79,0.00,,,0.00,WUHU216HW,2013-08-30 15:57:00,
2013-08-30 12:02:00,84.1,76.9,29.84,WSW,246,5.4,10.3,79,0.00,,,0.00,WUHU216HW,2013-08-30 16:02:00,
2013-08-30 12:07:00,84.4,76.8,29.83,WSW,255,5.8,11.6,78,0.00,,,0.00,WUHU216HW,2013-08-30 16:07:00,
2013-08-30 12:12:00,85.0,77.4,29.84,WSW,252,6.5,8.1,78,0.00,,,0.00,WUHU216HW,2013-08-30 16:12:00,
2013-08-30 12:17:00,85.0,76.5,29.84,SW,222,6.9,8.5,75,0.00,,,0.00,WUHU216HW,2013-08-30 16:17:00,
2013-08-30 12:22:00,84.4,75.9,29.83,SW,231,8.8,9.8,75,0.00,,,0.00,WUHU216HW,2013-08-30 16:22:00,
2013-08-30 12:27:00,84.6,75.7,29.83,WSW,245,7.6,9.8,74,0.00,,,0.00,WUHU216HW,2013-08-30 16:27:00,
2013-08-30 12:32:00,85.1,76.6,29.83,SW,232,5.1,5.4,75,0.00,,,0.00,WUHU216HW,2013-08-30 16:32:00,
2013-08-30 12:37:00,86.2,77.7,29.83,SW,232,7.4,8.1,75,0.00,,,0.00,WUHU216HW,2013-08-30 16:37:00,
2013-08-30 12:42:00,85.7,76.3,29.83,SSW,198,6.0,6.9,73,0.00,,,0.00,WUHU216HW,2013-08-30 16:42:00,
2013-08-30 12:47:00,85.7,76.7,29.83,SW,221,6.2,12.1,74,0.00,,,0.00,WUHU216HW,2013-08-30 16:47:00,
2013-08-30 12:52:00,85.7,76.3,29.83,SW,233,6.8,10.5,73,0.00,,,0.00,WUHU216HW,2013-08-30 16:52:00,
2013-08-30 12:57:00,86.0,76.1,29.83,WSW,241,5.4,6.3,72,0.00,,,0.00,WUHU216HW,2013-08-30 16:57:00,
2013-08-30 13:02:00,86.2,75.9,29.83,WNW,289,6.4,7.8,71,0.00,,,0.00,WUHU216HW,2013-08-30 17:02:00,
2013-08-30 13:07:00,86.8,76.9,29.82,SSW,202,4.2,6.3,72,0.00,,,0.00,WUHU216HW,2013-08-30 17:07:00,
2013-08-30 13:12:00,86.9,77.0,29.82,WSW,250,6.2,7.6,72,0.00,,,0.00,WUHU216HW,2013-08-30 17:12:00,
2013-08-30 13:17:00,87.1,77.2,29.82,West,260,4.8,6.5,72,0.00,,,0.00,WUHU216HW,2013-08-30 17:17:00,
2013-08-30 13:22:00,87.3,76.4,29.82,WSW,241,4.7,5.6,70,0.00,,,0.00,WUHU216HW,2013-08-30 17:22:00,
2013-08-30 13:27:00,87.5,76.6,29.82,SW,233,7.1,9.2,70,0.00,,,0.00,WUHU216HW,2013-08-30 17:27:00,
2013-08-30 13:32:00,87.1,76.3,29.81,SW,221,5.3,9.4,70,0.00,,,0.00,WUHU216HW,2013-08-30 17:32:00,
2013-08-30 13:37:00,87.5,76.6,29.81,SSW,200,4.0,5.4,70,0.00,,,0.00,WUHU216HW,2013-08-30 17:37:00,
2013-08-30 13:42:00,87.3,76.4,29.81,WSW,250,4.1,6.9,70,0.00,,,0.00,WUHU216HW,2013-08-30 17:42:00,
2013-08-30 13:47:00,87.3,76.9,29.81,SW,228,6.5,8.5,71,0.00,,,0.00,WUHU216HW,2013-08-30 17:47:00,
2013-08-30 13:52:00,87.8,76.9,29.80,SW,231,7.2,9.8,70,0.00,,,0.00,WUHU216HW,2013-08-30 17:52:00,
2013-08-30 13:57:00,88.2,77.3,29.80,West,259,4.6,5.4,70,0.00,,,0.00,WUHU216HW,2013-08-30 17:57:00,
2013-08-30 14:02:00,88.0,76.6,29.80,SW,234,6.7,8.5,69,0.00,,,0.00,WUHU216HW,2013-08-30 18:02:00,
2013-08-30 14:07:00,88.0,76.6,29.79,SSW,200,7.3,8.3,69,0.00,,,0.00,WUHU216HW,2013-08-30 18:07:00,
2013-08-30 14:12:00,88.0,76.6,29.80,SW,221,6.0,7.4,69,0.00,,,0.00,WUHU216HW,2013-08-30 18:12:00,
2013-08-30 14:17:00,88.4,76.5,29.80,SW,231,7.9,9.4,67,0.00,,,0.00,WUHU216HW,2013-08-30 18:17:00,
2013-08-30 14:22:00,87.8,76.4,29.79,WSW,238,6.1,7.4,69,0.00,,,0.00,WUHU216HW,2013-08-30 18:22:00,
2013-08-30 14:27:00,87.8,76.4,29.79,West,275,4.9,5.8,69,0.00,,,0.00,WUHU216HW,2013-08-30 18:27:00,
2013-08-30 14:32:00,88.0,76.6,29.79,SW,229,6.6,8.7,69,0.00,,,0.00,WUHU216HW,2013-08-30 18:32:00,
2013-08-30 14:37:00,88.4,76.5,29.79,SW,218,5.6,8.1,67,0.00,,,0.00,WUHU216HW,2013-08-30 18:37:00,
2013-08-30 14:43:00,88.9,77.0,29.79,WSW,258,5.6,7.8,67,0.00,,,0.00,WUHU216HW,2013-08-30 18:43:00,
2013-08-30 14:48:00,88.9,77.0,29.79,WSW,253,6.5,7.6,67,0.00,,,0.00,WUHU216HW,2013-08-30 18:48:00,
2013-08-30 14:53:00,89.3,77.9,29.79,West,262,3.7,3.8,69,0.00,,,0.00,WUHU216HW,2013-08-30 18:53:00,
2013-08-30 14:58:00,90.0,77.6,29.78,WSW,253,9.1,11.0,66,0.00,,,0.00,WUHU216HW,2013-08-30 18:58:00,
2013-08-30 15:03:00,89.6,77.2,29.78,WSW,238,6.3,9.2,66,0.00,,,0.00,WUHU216HW,2013-08-30 19:03:00,
2013-08-30 15:08:00,89.5,77.1,29.78,SW,215,6.7,8.3,66,0.00,,,0.00,WUHU216HW,2013-08-30 19:08:00,
2013-08-30 15:13:00,89.6,77.2,29.78,SW,231,6.3,7.6,66,0.00,,,0.00,WUHU216HW,2013-08-30 19:13:00,
2013-08-30 15:18:00,89.8,76.3,29.77,West,273,5.6,7.6,64,0.00,,,0.00,WUHU216HW,2013-08-30 19:18:00,
2013-08-30 15:23:00,89.5,76.6,29.77,West,267,5.3,6.3,65,0.00,,,0.00,WUHU216HW,2013-08-30 19:23:00,
2013-08-30 15:28:00,89.1,76.2,29.76,West,266,7.0,7.8,65,0.00,,,0.00,WUHU216HW,2013-08-30 19:28:00,
2013-08-30 15:33:00,89.3,76.9,29.76,WNW,282,5.1,6.0,66,0.00,,,0.00,WUHU216HW,2013-08-30 19:33:00,
2013-08-30 15:38:00,89.5,77.1,29.76,SW,223,7.6,13.0,66,0.00,,,0.00,WUHU216HW,2013-08-30 19:38:00,
2013-08-30 15:43:00,89.3,76.9,29.76,WSW,241,5.5,6.0,66,0.00,,,0.00,WUHU216HW,2013-08-30 19:43:00,
2013-08-30 15:48:00,89.5,77.1,29.76,WSW,237,4.9,5.8,66,0.00,,,0.00,WUHU216HW,2013-08-30 19:48:00,
2013-08-30 15:53:00,89.8,77.4,29.76,SW,235,3.6,6.9,66,0.00,,,0.00,WUHU216HW,2013-08-30 19:53:00,
2013-08-30 15:58:00,89.8,76.9,29.75,South,185,3.1,3.8,65,0.00,,,0.00,WUHU216HW,2013-08-30 19:58:00,
2013-08-30 16:03:00,89.6,77.2,29.75,SW,218,4.8,6.0,66,0.00,,,0.00,WUHU216HW,2013-08-30 20:03:00,
2013-08-30 16:08:00,89.6,77.2,29.75,WSW,239,2.8,5.6,66,0.00,,,0.00,WUHU216HW,2013-08-30 20:08:00,
2013-08-30 16:13:00,90.0,78.1,29.74,SW,219,2.7,4.9,67,0.00,,,0.00,WUHU216HW,2013-08-30 20:13:00,
2013-08-30 16:18:00,90.7,78.2,29.74,SW,236,6.7,7.8,66,0.00,,,0.00,WUHU216HW,2013-08-30 20:18:00,
2013-08-30 16:23:00,90.5,77.5,29.74,SW,225,4.2,4.7,65,0.00,,,0.00,WUHU216HW,2013-08-30 20:23:00,
2013-08-30 16:28:00,90.4,76.9,29.74,West,270,5.9,7.6,64,0.00,,,0.00,WUHU216HW,2013-08-30 20:28:00,
2013-08-30 16:33:00,90.0,77.0,29.74,SW,217,4.8,7.2,65,0.00,,,0.00,WUHU216HW,2013-08-30 20:33:00,
2013-08-30 16:38:00,89.8,76.9,29.74,WSW,254,8.1,9.8,65,0.00,,,0.00,WUHU216HW,2013-08-30 20:38:00,
2013-08-30 16:43:00,89.6,76.7,29.74,SSW,204,3.8,4.9,65,0.00,,,0.00,WUHU216HW,2013-08-30 20:43:00,
2013-08-30 16:48:00,89.6,76.7,29.73,WSW,238,6.2,8.5,65,0.00,,,0.00,WUHU216HW,2013-08-30 20:48:00,
2013-08-30 16:53:00,90.0,77.0,29.73,SW,235,5.5,7.2,65,0.00,,,0.00,WUHU216HW,2013-08-30 20:53:00,
2013-08-30 16:58:00,90.0,77.0,29.73,SW,221,5.1,6.7,65,0.00,,,0.00,WUHU216HW,2013-08-30 20:58:00,
2013-08-30 17:03:00,90.0,77.0,29.73,WSW,239,7.6,10.7,65,0.00,,,0.00,WUHU216HW,2013-08-30 21:03:00,
2013-08-30 17:08:00,89.6,77.2,29.73,WSW,237,7.8,9.2,66,0.00,,,0.00,WUHU216HW,2013-08-30 21:08:00,
2013-08-30 17:13:00,89.6,77.2,29.72,WSW,242,4.2,4.5,66,0.00,,,0.00,WUHU216HW,2013-08-30 21:13:00,
2013-08-30 17:18:00,89.3,76.4,29.72,WSW,258,3.6,5.1,65,0.00,,,0.00,WUHU216HW,2013-08-30 21:18:00,
2013-08-30 17:23:00,89.5,77.1,29.72,South,175,3.5,4.5,66,0.00,,,0.00,WUHU216HW,2013-08-30 21:23:00,
2013-08-30 17:28:00,89.3,76.4,29.72,SW,227,6.3,8.9,65,0.00,,,0.00,WUHU216HW,2013-08-30 21:28:00,
2013-08-30 17:33:00,89.1,76.7,29.72,WSW,248,3.4,5.1,66,0.00,,,0.00,WUHU216HW,2013-08-30 21:33:00,
2013-08-30 17:39:00,89.1,76.7,29.72,WSW,249,7.2,7.8,66,0.00,,,0.00,WUHU216HW,2013-08-30 21:39:00,
2013-08-30 17:44:00,88.9,76.5,29.72,SW,230,5.6,6.9,66,0.00,,,0.00,WUHU216HW,2013-08-30 21:44:00,
2013-08-30 17:49:00,88.2,75.8,29.72,WSW,245,2.7,5.1,66,0.00,,,0.00,WUHU216HW,2013-08-30 21:49:00,
2013-08-30 17:54:00,87.7,75.9,29.72,SW,230,3.7,6.9,67,0.00,,,0.00,WUHU216HW,2013-08-30 21:54:00,
2013-08-30 17:59:00,87.3,75.5,29.72,WSW,240,3.8,4.7,67,0.00,,,0.00,WUHU216HW,2013-08-30 21:59:00,
2013-08-30 18:04:00,86.4,75.1,29.71,SSW,212,2.5,3.4,69,0.00,,,0.00,WUHU216HW,2013-08-30 22:04:00,
2013-08-30 18:09:00,86.0,74.7,29.71,WSW,242,4.6,5.1,69,0.00,,,0.00,WUHU216HW,2013-08-30 22:09:00,
2013-08-30 18:14:00,85.7,74.9,29.71,WSW,247,4.8,6.9,70,0.00,,,0.00,WUHU216HW,2013-08-30 22:14:00,
2013-08-30 18:19:00,85.3,75.0,29.72,SW,226,4.4,8.9,71,0.00,,,0.00,WUHU216HW,2013-08-30 22:19:00,
2013-08-30 18:24:00,85.1,75.3,29.71,WSW,237,2.5,4.7,72,0.00,,,0.00,WUHU216HW,2013-08-30 22:24:00,
2013-08-30 18:29:00,85.0,75.2,29.71,WSW,245,2.7,3.1,72,0.00,,,0.00,WUHU216HW,2013-08-30 22:29:00,
2013-08-30 18:34:00,84.6,74.8,29.71,WSW,258,3.4,4.0,72,0.00,,,0.00,WUHU216HW,2013-08-30 22:34:00,
2013-08-30 18:39:00,84.4,75.0,29.71,West,270,0.2,0.4,73,0.00,,,0.00,WUHU216HW,2013-08-30 22:39:00,
2013-08-30 18:44:00,84.2,75.3,29.71,SW,214,2.2,3.4,74,0.00,,,0.00,WUHU216HW,2013-08-30 22:44:00,
2013-08-30 18:49:00,84.2,75.3,29.71,SW,231,2.1,3.1,74,0.00,,,0.00,WUHU216HW,2013-08-30 22:49:00,
2013-08-30 18:54:00,84.2,75.7,29.71,SW,231,0.9,2.0,75,0.00,,,0.00,WUHU216HW,2013-08-30 22:54:00,
2013-08-30 18:59:00,83.9,75.4,29.71,WSW,240,1.5,1.8,75,0.00,,,0.00,WUHU216HW,2013-08-30 22:59:00,
2013-08-30 19:04:00,83.9,75.4,29.70,SW,225,0.7,0.9,75,0.00,,,0.00,WUHU216HW,2013-08-30 23:04:00,
2013-08-30 19:09:00,83.5,75.0,29.70,SW,233,1.6,2.9,75,0.00,,,0.00,WUHU216HW,2013-08-30 23:09:00,
2013-08-30 19:14:00,83.2,74.8,29.70,SW,225,2.6,2.9,75,0.00,,,0.00,WUHU216HW,2013-08-30 23:14:00,
2013-08-30 19:19:00,82.8,74.8,29.70,WSW,244,2.5,2.9,76,0.00,,,0.00,WUHU216HW,2013-08-30 23:19:00,
2013-08-30 19:24:00,82.4,74.4,29.70,SW,231,4.6,6.3,76,0.00,,,0.00,WUHU216HW,2013-08-30 23:24:00,
2013-08-30 19:29:00,82.1,74.1,29.70,West,262,2.1,2.5,76,0.00,,,0.00,WUHU216HW,2013-08-30 23:29:00,
2013-08-30 19:34:00,81.7,74.2,29.70,WSW,246,3.1,4.0,78,0.00,,,0.00,WUHU216HW,2013-08-30 23:34:00,
2013-08-30 19:39:00,81.4,73.9,29.70,SW,225,1.7,1.8,78,0.00,,,0.00,WUHU216HW,2013-08-30 23:39:00,
2013-08-30 19:44:00,81.0,73.9,29.70,SW,218,1.9,2.0,79,0.00,,,0.00,WUHU216HW,2013-08-30 23:44:00,
2013-08-30 19:49:00,80.8,73.7,29.70,WSW,249,1.7,2.0,79,0.00,,,0.00,WUHU216HW,2013-08-30 23:49:00,
2013-08-30 19:54:00,80.5,73.8,29.69,SW,229,1.7,2.5,80,0.00,,,0.00,WUHU216HW,2013-08-30 23:54:00,
2013-08-30 19:59:00,80.1,73.4,29.69,West,263,2.5,2.9,80,0.00,,,0.00,WUHU216HW,2013-08-30 23:59:00,
2013-08-30 20:04:00,79.9,73.2,29.69,WSW,244,1.4,1.8,80,0.00,,,0.00,WUHU216HW,2013-08-31 00:04:00,
2013-08-30 20:09:00,79.6,73.3,29.69,SW,224,2.2,3.4,81,0.00,,,0.00,WUHU216HW,2013-08-31 00:09:00,
2013-08-30 20:14:00,79.6,73.7,29.70,West,270,2.2,2.7,82,0.00,,,0.00,WUHU216HW,2013-08-31 00:14:00,
2013-08-30 20:19:00,79.4,73.5,29.70,WSW,248,1.7,2.2,82,0.00,,,0.00,WUHU216HW,2013-08-31 00:19:00,
2013-08-30 20:24:00,79.2,73.3,29.69,WSW,237,3.2,5.4,82,0.00,,,0.00,WUHU216HW,2013-08-31 00:24:00,
2013-08-30 20:29:00,79.2,73.3,29.70,WSW,239,2.4,2.5,82,0.00,,,0.00,WUHU216HW,2013-08-31 00:29:00,
2013-08-30 20:34:00,79.2,73.7,29.69,West,270,1.5,2.5,83,0.00,,,0.00,WUHU216HW,2013-08-31 00:34:00,
2013-08-30 20:39:00,79.0,73.5,29.69,NNW,341,1.2,2.0,83,0.00,,,0.00,WUHU216HW,2013-08-31 00:39:00,
2013-08-30 20:44:00,78.8,73.7,29.70,North,0,0.0,0.2,84,0.00,,,0.00,WUHU216HW,2013-08-31 00:44:00,
2013-08-30 20:50:00,78.7,73.6,29.70,ENE,58,1.0,1.3,84,0.00,,,0.00,WUHU216HW,2013-08-31 00:50:00,
2013-08-30 20:55:00,78.3,73.2,29.70,ESE,113,0.0,0.2,84,0.00,,,0.00,WUHU216HW,2013-08-31 00:55:00,
2013-08-30 21:00:00,78.1,73.4,29.70,North,0,0.0,0.0,85,0.00,,,0.00,WUHU216HW,2013-08-31 01:00:00,
2013-08-30 21:05:00,77.9,73.6,29.71,NNE,23,1.5,1.8,87,0.00,,,0.00,WUHU216HW,2013-08-31 01:05:00,
2013-08-30 21:10:00,77.6,73.7,29.72,NNE,22,1.6,1.8,88,0.00,,,0.00,WUHU216HW,2013-08-31 01:10:00,
2013-08-30 21:15:00,77.4,73.5,29.73,NE,45,0.6,1.3,88,0.00,,,0.00,WUHU216HW,2013-08-31 01:15:00,
2013-08-30 21:20:00,77.0,73.8,29.72,ENE,77,1.5,2.5,90,0.00,,,0.00,WUHU216HW,2013-08-31 01:20:00,
2013-08-30 21:25:00,77.0,73.8,29.72,ENE,68,0.2,0.4,90,0.00,,,0.00,WUHU216HW,2013-08-31 01:25:00,
2013-08-30 21:30:00,76.9,73.7,29.72,ENE,63,0.4,0.4,90,0.00,,,0.00,WUHU216HW,2013-08-31 01:30:00,
2013-08-30 21:35:00,76.7,73.5,29.73,WSW,238,1.0,2.5,90,0.00,,,0.00,WUHU216HW,2013-08-31 01:35:00,
2013-08-30 21:40:00,76.5,73.3,29.73,SW,232,2.4,2.7,90,0.00,,,0.00,WUHU216HW,2013-08-31 01:40:00,
2013-08-30 21:45:00,76.5,73.7,29.74,SW,225,1.2,1.6,91,0.00,,,0.00,WUHU216HW,2013-08-31 01:45:00,
2013-08-30 21:50:00,76.3,73.5,29.73,SW,225,0.1,0.2,91,0.00,,,0.00,WUHU216HW,2013-08-31 01:50:00,
2013-08-30 21:55:00,76.3,73.5,29.73,West,270,0.1,0.2,91,0.00,,,0.00,WUHU216HW,2013-08-31 01:55:00,
2013-08-30 22:00:00,76.3,73.5,29.73,East,86,1.0,1.1,91,0.00,,,0.00,WUHU216HW,2013-08-31 02:00:00,
2013-08-30 22:05:00,76.3,73.5,29.72,NE,46,0.7,1.1,91,0.00,,,0.00,WUHU216HW,2013-08-31 02:05:00,
2013-08-30 22:10:00,76.3,73.5,29.72,North,0,0.0,0.0,91,0.00,,,0.00,WUHU216HW,2013-08-31 02:10:00,
2013-08-30 22:15:00,76.1,73.6,29.71,North,0,0.0,0.0,92,0.00,,,0.00,WUHU216HW,2013-08-31 02:15:00,
2013-08-30 22:20:00,76.0,73.5,29.72,North,0,0.1,0.4,92,0.00,,,0.00,WUHU216HW,2013-08-31 02:20:00,
2013-08-30 22:25:00,76.0,73.5,29.71,North,0,0.0,0.0,92,0.00,,,0.00,WUHU216HW,2013-08-31 02:25:00,
2013-08-30 22:30:00,76.0,73.5,29.72,North,0,0.0,0.0,92,0.00,,,0.00,WUHU216HW,2013-08-31 02:30:00,
2013-08-30 22:35:00,75.8,73.3,29.72,North,0,0.0,0.0,92,0.00,,,0.00,WUHU216HW,2013-08-31 02:35:00,
2013-08-30 22:40:00,75.8,73.7,29.72,NE,42,0.5,1.1,93,0.00,,,0.00,WUHU216HW,2013-08-31 02:40:00,
2013-08-30 22:45:00,75.8,73.7,29.72,NE,38,0.9,1.3,93,0.00,,,0.00,WUHU216HW,2013-08-31 02:45:00,
2013-08-30 22:50:00,75.8,73.7,29.72,NE,45,0.8,0.9,93,0.00,,,0.00,WUHU216HW,2013-08-31 02:50:00,
2013-08-30 22:55:00,75.8,73.7,29.71,ENE,68,0.4,0.4,93,0.00,,,0.00,WUHU216HW,2013-08-31 02:55:00,
2013-08-30 23:00:00,75.6,73.5,29.72,North,0,0.5,1.1,93,0.00,,,0.00,WUHU216HW,2013-08-31 03:00:00,
2013-08-30 23:05:00,75.6,73.5,29.73,North,0,0.0,0.0,93,0.00,,,0.00,WUHU216HW,2013-08-31 03:05:00,
2013-08-30 23:10:00,75.6,73.5,29.73,North,0,0.0,0.0,93,0.00,,,0.00,WUHU216HW,2013-08-31 03:10:00,
2013-08-30 23:15:00,75.6,73.5,29.73,East,86,2.3,2.7,93,0.00,,,0.00,WUHU216HW,2013-08-31 03:15:00,
2013-08-30 23:20:00,75.6,73.5,29.73,ENE,68,0.6,1.1,93,0.00,,,0.00,WUHU216HW,2013-08-31 03:20:00,
2013-08-30 23:25:00,75.6,73.5,29.73,East,90,0.9,1.1,93,0.00,,,0.00,WUHU216HW,2013-08-31 03:25:00,
2013-08-30 23:30:00,75.6,73.9,29.73,East,90,0.5,1.1,94,0.00,,,0.00,WUHU216HW,2013-08-31 03:30:00,
2013-08-30 23:35:00,75.4,73.7,29.73,North,0,0.5,0.9,94,0.00,,,0.00,WUHU216HW,2013-08-31 03:35:00,
2013-08-30 23:40:00,75.4,73.7,29.73,ENE,68,0.4,0.7,94,0.00,,,0.00,WUHU216HW,2013-08-31 03:40:00,
2013-08-30 23:45:00,75.4,73.7,29.73,ENE,68,1.2,1.6,94,0.00,,,0.00,WUHU216HW,2013-08-31 03:45:00,
2013-08-30 23:50:00,75.2,73.5,29.73,ENE,68,0.3,0.4,94,0.00,,,0.00,WUHU216HW,2013-08-31 03:50:00,
2013-08-30 23:55:00,75.2,73.5,29.73,North,0,0.0,0.0,94,0.00,,,0.00,WUHU216HW,2013-08-31 03:55:00,